Tracking 29594 objects as of 20-Sep-2024
HD Live streaming from Space Station
objects crossing your sky now

SL-14 R/B

Track SL-14 R/B now!
10-day predictions


NORAD ID: 13590
Int'l Code: 1982-096B
Perigee: 1,498.3 km
Apogee: 1,506.5 km
Inclination: 82.6 °
Period: 115.9 minutes
Semi major axis: 7873 km
RCS: 3.9481 m2 (large)
Launch date: September 24, 1982
Source: Commonwealth of Independent States (former USSR) (CIS)
Launch site: PLESETSK MISSILE AND SPACE COMPLEX (PKMTR)

Note: This is a ROCKET BODY
Your satellite tracking list
Your tracking list is empty




NASA's NSSDC Master Catalog

Two Line Element Set (TLE):
1 13590U 82096B   24263.66717017  .00000032  00000-0  16045-3 0  9999
2 13590  82.6086 133.7739 0005217 256.1211 172.4501 12.42680132904604
Source of the keplerian elements: AFSPC